DW9672 Weather Reports


Display with metric or nautical units.
time (UTC)temp
F
wind
direction
speed
MPH
gust
MPH
rain 1hr
in
rain 24hr
in
rain mn
in
humidity
%
barometer
mb
20260905221502 86 19 2.0 11.0 0.00 0.02 0.01 76 1014.0
20260905220003 86 74 4.0 11.0 0.00 0.02 0.01 75 1014.0
20260905214547 87 38 4.0 9.0 0.00 0.02 0.01 73 1013.7
20260905213047 87 355 1.0 10.0 0.00 0.02 0.01 74 1013.6
20260905211552 87 67 3.0 9.0 0.00 0.02 0.01 72 1013.6
20260905210048 88 25 4.0 10.0 0.00 0.02 0.01 72 1013.4
20260905204547 88 48 5.0 10.0 0.00 0.02 0.01 73 1013.4
20260905201548 88 52 5.0 9.0 0.00 0.02 0.01 75 1013.7
20260905200048 88 92 2.0 9.0 0.00 0.02 0.01 75 1013.8
20260905194549 88 15 7.0 13.0 0.00 0.02 0.01 74 1013.7
20260905191550 88 9 5.0 10.0 0.01 0.02 0.01 73 1013.7
20260905190047 88 355 4.0 10.0 0.01 0.02 0.01 74 1013.8
20260905184608 88 28 3.0 7.0 0.01 0.02 0.01 73 1013.9
20260905181523 87 23 3.0 7.0 0.00 0.01 0.00 76 1014.2
20260905180027 88 49 4.0 10.0 0.00 0.01 0.00 76 1014.3
20260905174508 88 43 4.0 7.0 0.00 0.02 0.00 77 1014.2
20260905173002 88 63 2.0 9.0 0.00 0.02 0.00 76 1014.3
20260905171545 88 13 4.0 7.0 0.00 0.02 0.00 78 1014.4
20260905170045 87 19 3.0 8.0 0.00 0.02 0.00 78 1014.5
20260905164526 88 355 4.0 9.0 0.00 0.02 0.00 77 1014.5
20260905163024 88 66 0.0 5.0 0.00 0.02 0.00 76 1014.5
20260905161504 87 23 4.0 8.0 0.00 0.02 0.00 77 1014.5
20260905160002 87 42 0.0 8.0 0.00 0.02 0.00 78 1014.4
20260905154606 86 5 0.0 6.0 0.00 0.02 0.00 82 1014.3
20260905153039 85 40 1.0 6.0 0.00 0.02 0.00 84 1014.3
20260905151519 85 346 1.0 7.0 0.00 0.02 0.00 85 1014.2
20260905150017 84 360 3.0 6.0 0.00 0.02 0.00 87 1014.1
20260905144507 83 22 5.0 9.0 0.00 0.02 0.00 87 1014.1
20260905143003 83 79 5.0 9.0 0.00 0.02 0.00 87 1014.1
20260905141501 83 48 1.0 6.0 0.00 0.02 0.00 87 1013.9
20260905140058 82 5 0.0 3.0 0.00 0.02 0.00 90 1013.9
20260905134554 81 5 0.0 2.0 0.00 0.02 0.00 92 1013.9
20260905133051 79 31 1.0 3.0 0.00 0.02 0.00 95 1014.0
20260905131548 78 30 1.0 4.0 0.00 0.02 0.00 97 1014.3
20260905130049 77 5 0.0 0.0 0.00 0.02 0.00 99 1013.9
20260905124536 75 5 0.0 0.0 0.00 0.02 0.00 99 1013.7
20260905123034 74 355 0.0 0.0 0.00 0.02 0.00 98 1013.6
20260905121534 74 355 0.0 0.0 0.00 0.02 0.00 98 1013.4
20260905120037 74 355 0.0 0.0 0.00 0.02 0.00 98 1013.2
20260905114533 74 355 0.0 0.0 0.00 0.02 0.00 98 1013.1
20260905113045 74 355 0.0 0.0 0.00 0.02 0.00 98 1012.8
20260905111551 74 355 0.0 0.0 0.00 0.02 0.00 98 1012.9
20260905110040 74 339 0.0 0.0 0.00 0.02 0.00 98 1012.7
20260905104514 74 339 0.0 0.0 0.00 0.02 0.00 98 1012.7
20260905103012 74 339 0.0 0.0 0.00 0.02 0.00 98 1012.7
20260905101603 74 339 0.0 0.0 0.00 0.02 0.00 98 1012.8
20260905100056 74 339 0.0 0.0 0.00 0.02 0.00 98 1012.8
20260905094536 74 339 0.0 0.0 0.00 0.02 0.00 98 1012.8
20260905093035 74 339 0.0 0.0 0.00 0.02 0.00 98 1012.8
20260905091526 74 339 0.0 0.0 0.00 0.02 0.00 98 1012.9
20260905090022 74 339 0.0 0.0 0.00 0.02 0.00 97 1012.9
20260905084520 75 339 0.0 0.0 0.00 0.02 0.00 98 1013.0
20260905083020 75 339 0.0 0.0 0.00 0.02 0.00 98 1012.9
20260905081519 75 339 0.0 0.0 0.00 0.02 0.00 97 1013.0
20260905080022 75 339 0.0 0.0 0.00 0.02 0.00 97 1013.0
20260905074519 75 339 0.0 0.0 0.00 0.02 0.00 97 1013.1
20260905073014 75 339 0.0 0.0 0.00 0.02 0.00 97 1013.1
20260905071558 75 339 0.0 0.0 0.00 0.02 0.00 97 1013.2
20260905070056 75 339 0.0 0.0 0.00 0.02 0.00 97 1013.2
20260905064544 76 339 0.0 0.0 0.00 0.02 0.00 97 1013.2
20260905063043 76 339 0.0 0.0 0.00 0.02 0.00 97 1013.1
20260905061541 76 339 0.0 0.0 0.00 0.02 0.00 97 1013.2
20260905060039 76 339 0.0 0.0 0.00 0.02 0.00 97 1013.3
20260905054539 77 339 0.0 0.0 0.00 0.02 0.00 97 1013.5
20260905053042 77 339 0.0 0.0 0.00 0.02 0.00 96 1013.5
20260905051543 77 339 0.0 0.0 0.00 0.02 0.00 96 1013.5
20260905050035 77 339 0.0 0.0 0.00 0.02 0.00 96 1013.5
20260905044514 78 339 0.0 0.0 0.00 0.02 0.00 96 1013.7
20260905043013 78 339 0.0 0.0 0.00 0.02 0.00 96 1013.8
20260905041600 78 339 0.0 0.0 0.00 0.02 0.00 96 1013.7
20260905034535 79 339 0.0 0.0 0.00 0.02 0.02 95 1013.9
20260905033105 79 339 0.0 0.0 0.00 0.02 0.02 95 1013.9
20260905031518 79 339 0.0 0.0 0.00 0.02 0.02 95 1013.7
20260905030017 79 339 0.0 0.0 0.00 0.02 0.02 95 1013.6
20260905024601 80 339 0.0 0.0 0.00 0.02 0.02 95 1013.4
20260905023125 80 339 0.0 0.0 0.00 0.02 0.02 95 1013.4
20260905021549 81 339 0.0 0.0 0.00 0.02 0.02 94 1013.1
20260905020048 81 339 0.0 0.0 0.00 0.02 0.02 94 1013.0
20260905014551 82 339 0.0 0.0 0.00 0.02 0.02 93 1013.2
20260905013047 82 339 0.0 0.0 0.00 0.02 0.02 92 1013.1
20260905011548 83 339 0.0 0.0 0.01 0.02 0.02 91 1013.0
20260905004546 84 339 0.0 0.0 0.01 0.02 0.02 88 1012.7
20260905003045 85 339 0.0 0.0 0.01 0.02 0.02 87 1012.5
20260905001526 87 339 0.0 0.0 0.00 0.01 0.01 86 1012.4
20260905000027 88 339 0.0 0.0 0.00 0.01 0.01 82 1012.3
20260904234509 90 339 0.0 0.0 0.00 0.01 0.01 80 1012.3
20260904233009 91 339 0.0 0.0 0.00 0.01 0.01 77 1012.3
20260904231607 93 339 0.0 0.0 0.00 0.01 0.01 72 1012.5
20260904230107 95 339 0.0 0.0 0.00 0.01 0.01 70 1012.4
20260904224549 96 339 0.0 0.0 0.00 0.02 0.01 66 1012.5
20260904223032 96 339 0.0 0.0 0.00 0.02 0.01 62 1012.5